User: anonymous   Login
Location: Springfield
(37.2150°N, 93.2980°W)
Time: 04:16:01
(UTC-06:00)
Language:

Iridium 62 - Orbit

View from above orbital plane
View from above orbital plane
View from above satellite
View from above satellite

Ground track
Ground track

The orbit data is extracted from the following two-line orbital elements,

1 25285U 98021A   16338.37338599  .00000016  00000-0 -14815-5 0  9992
2 25285  86.3940 305.7615 0002056  84.1191 276.0239 14.34216574976950
Epoch (UTC): 03 December 2016 08:57:40
Eccentricity: 0.0002056
inclination: 86.3940°
perigee height: 776 km
apogee height: 779 km
right ascension of ascending node: 305.7615°
argument of perigee: 84.1191°
revolutions per day: 14.34216574
mean anomaly at epoch: 276.0239°
orbit number at epoch: 97695

The dashed part of the orbit path shows where the satellite is in the earth's shadow,  

DLR